Regional Weather Roundup
Issued by NWS

Home | Current Version | Previous Version | Text Only | Print | Product List | Glossary On
Versions: 1 2 3 4 5 6 7 8 9 10 11 12 13 14 15 16 17 18 19 20 21 22 23 24 25 26 27 28 29 30 31 32 33 34 35 36 37 38 39 40 41 42 43 44 45 46 47 48 49 50
000
ASUS45 KPSR 292310
RWRAZ

ARIZONA HOURLY REGIONAL WEATHER ROUNDUP
NATIONAL WEATHER SERVICE PHOENIX AZ
400 PM MST FRI MAY 29 2015

NOTE: FAIR INDICATES FEW OR NO CLOUDS BELOW 12,000 FEET WITH NO
SIGNIFICANT WEATHER AND/OR OBSTRUCTIONS TO VISIBILITY.

AZZ001>003-036-300000-
NORTHWEST ARIZONA

CITY           SKY/WX    TMP DP  RH WIND       PRES   REMARKS
BULLHEAD CITY  SUNNY    102  18   5 SW9G17    29.79F
KINGMAN        SUNNY     92  14   5 SW17G24   29.98F
$$

AZZ004>008-015-016-018-300000-
NORTH CENTRAL ARIZONA

CITY           SKY/WX    TMP DP  RH WIND       PRES   REMARKS
GRAND CANYON   PTSUNNY   72  32  23 W5        30.21F
WILLIAMS       PTSUNNY   75  30  19 VRB5G12   30.26F
PRESCOTT       SUNNY     84  21  10 VRB5G20   30.08F
FLAGSTAFF      MOSUNNY   74  33  22 S9        30.24F
PAYSON         MOSUNNY   84  21  10 S12       30.11F
PAGE           MOSUNNY   81  36  19 W5        30.07F
$$

AZZ009>014-017-300000-
NORTHEAST ARIZONA

CITY           SKY/WX    TMP DP  RH WIND       PRES   REMARKS
WINSLOW        MOSUNNY   84  28  13 NW5       30.08F
SAINT JOHNS    MOSUNNY   81  23  11 NW10      30.11F
WINDOW ROCK    PTSUNNY   75  27  17 N10G18    30.20F
SHOW LOW       PTSUNNY   73  27  17 S6        30.20S
$$

AZZ023-300000-
GREATER PHOENIX AREA

CITY           SKY/WX    TMP DP  RH WIND       PRES   REMARKS
PHOENIX        MOSUNNY  101  20   5 CALM      29.81F
BUCKEYE        SUNNY     99  21   6 SE8       29.83F
GLENDALE       MOSUNNY  100  19   5 SW3       29.83F
LUKE AFB       SUNNY    100  26   7 VRB5      29.81F
DEER VALLEY    SUNNY     97  19   6 S8        29.83F
SCOTTSDALE     SUNNY     98  19   6 VRB3      29.85F
MESA-FALCON    MOSUNNY  100  19   5 W6        29.84F
MESA-GATEWAY   MOSUNNY   97  28   9 W6        29.86F
CHANDLER       MOSUNNY   99  23   6 W9        29.83F
$$

AZZ027-028-300000-
SOUTHWEST MARICOPA COUNTY AND PINAL COUNTY

CITY           SKY/WX    TMP DP  RH WIND       PRES   REMARKS
CASA GRANDE    SUNNY     99  34  10 SW8       29.84F
$$

AZZ503-504-507>509-300000-
SOUTHEAST ARIZONA

CITY           SKY/WX    TMP DP  RH WIND       PRES   REMARKS
TUCSON         SUNNY     97  24   7 W8        29.91F
RYAN FIELD       N/A    100  32   9 W6        29.89F
NOGALES        SUNNY     94  31  10 SW13      29.98F
SIERRA VISTA   MOSUNNY   88  23   9 SW6G17    30.04F
DOUGLAS        SUNNY     91  29  11 MISG      29.99F
SAFFORD        PTSUNNY   95  23   7 SW6       29.90F
$$

AZZ020-021-025-026-031-300000-
SOUTHWEST ARIZONA

CITY           SKY/WX    TMP DP  RH WIND       PRES   REMARKS
YUMA           MOSUNNY  100  38  11 S10       29.79F
$$

CAZ031-033-041-043-047-048-061-300000-
SOUTHERN CALIFORNIA

CITY           SKY/WX    TMP DP  RH WIND       PRES   REMARKS
DOWNTOWN L.A.  SUNNY     73  58  59 CALM      29.89F
L.A. AIRPORT   MOSUNNY   66  57  72 W12       29.91F
SAN DIEGO      MOSUNNY   68  55  63 W8        29.93F
BURBANK        SUNNY     84  54  35 SE10      29.88F
ONTARIO        PTSUNNY   88  50  27 W14       29.88F
RIVERSIDE      SUNNY     88  52  29 W13G20    29.87F
PALM SPRINGS   SUNNY     99  39  12 E7        29.81F
EL CENTRO NAS  MOSUNNY  100  44  14 VRB7      29.78F
IMPERIAL       SUNNY     99  46  16 SE10G17   29.76F
BLYTHE         SUNNY    101  31   8 S16       29.79F
NEEDLES        SUNNY    104   3   2 S14G20    29.81F
$$

NVZ020-UTZ003-300000-
SOUTHERN NEVADA-UTAH

CITY           SKY/WX    TMP DP  RH WIND       PRES   REMARKS
LAS VEGAS      MOSUNNY   98  25   7 SE12      29.83F
SALT LAKE CITY MOSUNNY   76  34  21 N8        30.12F
$$

NMZ009-TXZ055-300000-
NEW MEXICO-WEST TEXAS

CITY           SKY/WX    TMP DP  RH WIND       PRES   REMARKS
ALBUQUERQUE    PTSUNNY   76  34  21 W9        30.12F
EL PASO        MOSUNNY   95  18   6 W16G24    29.94F
$$


........................KEY........................
SKY/WX - SKY CONDITION/WEATHER
TMP    - TEMPERATURE IN FAHRENHEIT
DP     - DEW POINT IN FAHRENHEIT
RH     - RELATIVE HUMIDITY IN PERCENT
WIND   - DIRECTION AND SPEED IN MILES PER HOUR (MPH)
VRB    - VARIABLE WIND DIRECTION
PRES   - MEAN SEA LEVEL PRESSURE IN INCHES OF MERCURY
         F - FALLING PRESSURE   R - RISING PRESSURE
         S - STEADY PRESSURE
VSB    - VISIBILITY IN MILES
HX     - HEAT INDEX IN FAHRENHEIT
WCI    - WIND CHILL INDEX IN FAHRENHEIT
TC     - TEMPERATURE IN CELSIUS WHICH IS ALSO KNOWN AS
         TEMPERATURE IN CENTIGRADE
AFB    - AIR FORCE BASE
         LUKE AFB IS LUKE AIR FORCE BASE
         DAVIS-MONTHAN IS DAVIS-MONTHAN AIR FORCE BASE
NAS    - NAVAL AIR STATION
         EL CENTRO NAS IS EL CENTRO NAVAL AIR STATION
N/A    - NOT AVAILABLE



USA.gov is the U.S. government's official web portal to all federal, state and local government web resources and services.